Location: Caltech
(34.1382°N, 118.1253°W)
Time: 03:31:36
(UTC-08:00)

Cosmos 1833 - Visible Passes

Search period start: 09 December 2016 00:00
Search period end: 19 December 2016 00:00
Orbit: 829 x 870 km, 70.9° (Epoch: 08 December)

Date Brightness Start Highest point End Pass type
(mag) Time Alt. Az. Time Alt. Az. Time Alt. Az.
13 Dec 6.2 18:09:43 10° NNE 18:10:18 12° NNE 18:10:18 12° NNE visible
14 Dec 5.9 17:57:01 10° NNE 17:58:53 15° NE 17:58:53 15° NE visible
14 Dec 6.3 19:39:37 10° NNW 19:40:57 17° NNW 19:40:57 17° NNW visible
15 Dec 5.6 17:44:19 10° NNE 17:47:52 16° NE 17:47:54 16° NE visible
15 Dec 5.5 19:26:53 10° NNW 19:30:00 33° NW 19:30:00 33° NW visible
16 Dec 5.6 17:31:38 10° NNE 17:35:08 16° NE 17:37:47 12° E visible
16 Dec 4.5 19:14:11 10° NNW 19:19:50 64° WSW 19:19:59 64° WSW visible
17 Dec 5.6 17:18:56 10° NNE 17:22:24 16° NE 17:25:51 10° E visible
17 Dec 4.5 19:01:27 10° NNW 19:07:07 65° WSW 19:12:41 10° S visible
18 Dec 5.6 17:06:15 10° NNE 17:09:41 16° NE 17:13:05 10° E visible
18 Dec 4.5 18:48:43 10° NNW 18:54:23 66° WSW 18:59:58 10° S visible
